Location: Sebastopol
(38.4021°N, 122.8239°W)
Time: 15:21:21
(UTC+00:00)

Cosmos 1689 Rocket - Pass Details

Date: 29 October 2020
Orbit: 360 x 374 km, 97.5° (Epoch: 01 December)

Event Time Altitude Azimuth Distance (km) Brightness Sun altitude
Rises 13:16:23 0° 158° (SSE) 2,228 6.3 -16.0°
Reaches altitude 10° 13:18:21 10° 154° (SSE) 1,378 5.3 -15.6°
Maximum altitude 13:21:13 53° 76° (ENE) 466 2.8 -15.0°
Drops below altitude 10° 13:24:05 10° 358° (N) 1,379 4.8 -14.5°
Sets 13:26:03 0° 353° (N) 2,230 5.8 -14.1°
